Portada
METAR-TAF:

METAR-TAF

Aeroports :

Aeroport Internacional de Bahrain

Bahrain, Bahrain

latitud: 26-16N, longitud: 050-39E, altitud: 2 m

Observació

L'informe es va fer fa 32 minuts, a les 23:30 UTC
Vent 7 kt del Oest
Temperatura 20°C
Humitat 64%
Pressió 1019 hPa
Visibilitat 10 km o més
sense núvols per sota de 1500 mi sense presència de cumulonimbus.

METAR: OBBI 212330Z 28007KT CAVOK 20/13 Q1019 NOSIG

Hora: 03:02 (00:02 UTC)

Pronòstic

L'informe es va fer fa 1 hora i 2 minuts, a les 23:00 UTC
Pronòstic vàlid del 22 a les 00 UTC al 23 a les 06 UTC
Vent 12 kt del Nord/Nord-Oest
Visibilitat 10 km o més
Escasses núvols a una alçada de 3000 ft

TAF: OBBI 212300Z 2200/2306 33012KT 9999 FEW030

Observacions i pronòstics meteorològics de més de 4000 aeroports (METAR i TAF).

Les estacions disponibles són els punts grocs i vermells al mapa.

Posi el ratolí al punt desitjat per veure el nom de l'estació.

Feu clic per veure les observacions i els pronòstics meteorològics.

Per canviar el mapa: feu clic els botons verds amb una creu de color negre per apropar; al botó verd amb un guió per allunyar la imatge; o en les fletxes verdes per a mapes adjacents.


METAR-TAF: